Homer, AK

10:35 AM AKST on February 19, 2018 (GMT -0900)
Homer

Weather History for PAHO - January, 2012

Change the Weather History Date:

Sunday, January 8, 2012

  Actual Average Record
Temperature  
Mean Temperature 14 °F -  
Max Temperature 19 °F 28 °F 50 °F (2015)
Min Temperature 10 °F 16 °F -10 °F (1975)
Degree Days  
Heating Degree Days 50    
Moisture  
Dew Point 10 °F    
Average Humidity 80    
Maximum Humidity 93    
Minimum Humidity 54    
Precipitation  
Precipitation 0.01 in - - ()
Sea Level Pressure  
Sea Level Pressure 29.25 in    
Wind  
Wind Speed 15 mph (WSW)    
Max Wind Speed 26 mph    
Max Gust Speed 34 mph    
Visibility 6 miles    
Events Snow    
Averages and records for this station are not official NWS values.
T = Trace of Precipitation, MM = Missing Value Source: NWS Daily Summary

Daily Weather History Graph

Daily Weather History Graph

Search for Another Location

Airport or City:

Trip Planner

Search our weather history database for the weather conditions in past years. The results will help you decide how hot, cold, wet, or windy it might be!

Date:

Astronomy

Jan. 08, 2012 Rise Set
Actual Time 9:59 AM AKST 4:25 PM AKST
Civil Twilight 9:05 AM AKST 5:19 PM AKST
Nautical Twilight 8:11 AM AKST 6:14 PM AKST
Astronomical Twilight 7:21 AM AKST 7:04 PM AKST
Moon 4:25 PM AKST (1/8) 9:22 AM AKST (1/8)
Length of Visible Light 8h 13m
Length of Day
6h 25m
Full, 100% of the Moon is Illuminated
Jan 8
Full
Jan 8
Full
Jan 16
Last Quarter
Jan 22
New
Jan 30
First Quarter

Hourly Weather History & Observations

Time (AKST) Temp. Windchill Dew Point Humidity Pressure Visibility Wind Dir Wind Speed Gust Speed Precip Events Conditions
12:18 AM 15.8 °F - 14.0 °F 93% 28.93 in 6.0 mi Calm Calm - N/A   Overcast
12:53 AM 19.0 °F 6.1 °F 16.0 °F 88% 28.94 in 10.0 mi WSW 12.7 mph 17.3 mph 0.01 in   Overcast
1:01 AM 19.4 °F 5.5 °F 15.8 °F 86% 28.94 in 10.0 mi SW 15.0 mph - N/A   Overcast
1:13 AM 19.4 °F 6.0 °F 15.8 °F 86% 28.94 in 10.0 mi WSW 13.8 mph - N/A   Overcast
1:53 AM 18.0 °F 1.7 °F 15.1 °F 88% 28.97 in 10.0 mi WSW 19.6 mph 24.2 mph N/A   Overcast
2:34 AM 17.6 °F 1.3 °F 15.8 °F 93% 28.97 in 8.0 mi WSW 19.6 mph 28.8 mph N/A   Overcast
3:06 AM 15.8 °F -3.4 °F 14.0 °F 93% 28.99 in 2.5 mi SW 26.5 mph 31.1 mph 0.00 in Snow Light Snow
3:36 AM 14.0 °F -5.1 °F 12.2 °F 93% 29.01 in 1.8 mi SW 24.2 mph 31.1 mph 0.00 in Snow Light Snow
3:53 AM 12.9 °F -5.7 °F 10.9 °F 92% 29.03 in 1.5 mi WSW 21.9 mph 32.2 mph 0.00 in Snow Light Snow
4:01 AM 12.2 °F -6.3 °F 10.4 °F 92% 29.03 in 2.0 mi WSW 20.7 mph 28.8 mph 0.00 in Snow Light Snow
4:08 AM 12.2 °F -6.7 °F 10.4 °F 92% 29.03 in 1.2 mi WSW 21.9 mph 26.5 mph 0.00 in Snow Light Snow
4:53 AM 12.0 °F -6.9 °F 10.0 °F 92% 29.06 in 1.5 mi SW 21.9 mph 31.1 mph 0.00 in Snow Light Snow
5:37 AM 10.4 °F -8.6 °F 8.6 °F 92% 29.07 in 1.0 mi WSW 20.7 mph 34.5 mph 0.00 in Snow Light Snow
5:53 AM 10.0 °F -9.1 °F 8.1 °F 92% 29.08 in 1.5 mi SW 20.7 mph 33.4 mph 0.00 in Snow Light Snow
6:53 AM 10.9 °F -9.6 °F 9.0 °F 92% 29.09 in 1.5 mi SW 25.3 mph 34.5 mph 0.00 in Snow Light Snow
7:53 AM 10.9 °F -7.9 °F 9.0 °F 92% 29.11 in 1.2 mi SW 20.7 mph 33.4 mph 0.00 in Snow Light Snow
8:53 AM 12.9 °F -3.9 °F 9.0 °F 84% 29.12 in 3.0 mi WSW 17.3 mph 28.8 mph 0.00 in Snow Light Snow
9:53 AM 12.9 °F -1.6 °F 9.0 °F 84% 29.17 in 3.0 mi WSW 12.7 mph 23.0 mph 0.00 in Snow Light Snow
10:31 AM 14.0 °F -3.0 °F 10.4 °F 86% 29.18 in 1.5 mi WSW 18.4 mph 25.3 mph 0.00 in Snow Light Snow
10:53 AM 15.1 °F 1.1 °F 12.9 °F 91% 29.19 in 1.5 mi West 12.7 mph 20.7 mph 0.00 in Snow Light Snow
11:14 AM 15.8 °F 5.1 °F 12.2 °F 86% 29.21 in 4.0 mi West 8.1 mph 19.6 mph 0.00 in   Overcast
11:53 AM 16.0 °F 7.4 °F 9.0 °F 74% 29.24 in 7.0 mi NW 5.8 mph - 0.00 in   Overcast
12:53 PM 16.0 °F 2.9 °F 7.0 °F 68% 29.29 in 7.0 mi NNW 11.5 mph 18.4 mph N/A   Overcast
1:53 PM 16.0 °F 2.9 °F 7.0 °F 68% 29.35 in 10.0 mi NW 11.5 mph 18.4 mph N/A   Overcast
2:53 PM 16.0 °F 7.4 °F 7.0 °F 68% 29.40 in 10.0 mi NW 5.8 mph - N/A   Overcast
3:53 PM 18.0 °F 8.7 °F 5.0 °F 57% 29.46 in 10.0 mi NW 6.9 mph - N/A   Overcast
4:53 PM 16.0 °F 7.4 °F 1.9 °F 54% 29.51 in 10.0 mi NW 5.8 mph - N/A   Clear
5:53 PM 18.0 °F 2.6 °F 5.0 °F 57% 29.57 in 10.0 mi West 17.3 mph 23.0 mph N/A   Clear
6:53 PM 19.0 °F 3.2 °F 9.0 °F 65% 29.61 in 7.0 mi West 19.6 mph 29.9 mph N/A   Clear
7:53 PM 18.0 °F 0.2 °F 9.0 °F 68% 29.65 in 10.0 mi West 24.2 mph 34.5 mph 0.00 in   Partly Cloudy
8:53 PM 17.1 °F 1.0 °F 7.0 °F 65% 29.68 in 10.0 mi West 18.4 mph 33.4 mph 0.00 in   Clear
9:53 PM 16.0 °F -1.7 °F 6.1 °F 65% 29.73 in 5.0 mi West 21.9 mph 32.2 mph N/A   Haze
10:53 PM 15.1 °F -1.1 °F 6.1 °F 68% 29.77 in 7.0 mi West 17.3 mph 28.8 mph N/A   Partly Cloudy
11:26 PM 15.8 °F -1.1 °F 6.8 °F 68% 29.79 in 9.0 mi West 19.6 mph 27.6 mph N/A   Mostly Cloudy
11:53 PM 14.0 °F -3.9 °F 7.0 °F 74% 29.81 in 6.0 mi West 20.7 mph 31.1 mph N/A   Haze